Location: Azul
(36.7830°S, 59.8500°W)
Time: 02:32:31
(UTC-03:00)

CAS-4A - Pass Details

Date: 29 October 2021
Orbit: 529 x 539 km, 43.0° (Epoch: 04 December)

Event Time Altitude Azimuth Distance (km) Brightness Sun altitude
Exits shadow 02:34:46 17° 128° (SE) 1,411 ? -33.2°
Drops below altitude 10° 02:35:52 10° 120° (ESE) 1,795 ? -33.1°
Sets 02:38:13 0° 112° (ESE) 2,686 ? -32.8°
